Location: Newark
(52.3500°N, 175.9667°E)
Time: 14:15:43
(UTC+00:00)

Envisat - Visible Passes

Search period start: 25 February 2021 00:00
Search period end: 07 March 2021 00:00
Orbit: 764 x 766 km, 98.1° (Epoch: 24 February)

Date Brightness Start Highest point End Pass type
(mag) Time Alt. Az. Time Alt. Az. Time Alt. Az.
25 Feb 6.4 06:43:19 10° WSW 06:45:40 13° W 06:48:01 10° NW visible
25 Feb 5.3 17:04:06 10° NE 17:08:17 25° E 17:12:26 10° SE visible
26 Feb 6.1 16:28:43 10° ENE 16:30:58 13° E 16:33:12 10° ESE visible
26 Feb 3.3 18:05:46 10° NNE 18:10:53 76° ESE 18:15:58 10° S visible
27 Feb 4.5 17:29:08 10° NNE 17:33:54 39° E 17:38:39 10° SSE visible
28 Feb 6.2 06:30:58 10° SW 06:34:04 16° W 06:37:12 10° NW visible
28 Feb 5.7 16:52:57 10° NE 16:56:44 21° E 17:00:29 10° SE visible
01 Mar 6.4 16:18:50 10° ENE 16:19:20 10° E 16:19:51 10° E visible
01 Mar 3.6 17:54:22 10° NNE 17:59:26 62° ESE 18:04:28 10° S visible
02 Mar 4.9 17:17:50 10° NNE 17:22:24 32° E 17:26:55 10° SSE visible
03 Mar 5.9 16:41:53 10° NE 16:45:10 17° E 16:48:25 10° SE visible
03 Mar 3.0 18:19:44 10° NNE 18:24:52 84° WNW 18:29:57 10° SSW visible
04 Mar 4.0 17:42:59 10° NNE 17:47:57 51° E 17:52:54 10° S visible
05 Mar 6.6 06:46:16 10° WSW 06:48:16 12° W 06:50:16 10° WNW visible
05 Mar 5.3 17:06:35 10° NE 17:10:52 26° E 17:15:07 10° SSE visible
06 Mar 6.1 16:31:00 10° NE 16:33:34 14° E 16:36:07 10° ESE visible
06 Mar 3.2 18:08:18 10° NNE 18:13:26 81° ESE 18:18:31 10° SSW visible
